Consejo Superior de Investigaciones Científicas
UNIDAD ASOCIADA "SISTEMAS AGROFORESTALES": ESTACIÓN FITOPATOLÓXICA DO AREEIRO - MISIÓN BIOLÓGICA DE GALICIA
Ver esta página en español
Ver esta páxina en galego
Browse this page in english
Inicio » Información Fitosanitaria » Datos meteorológicos

DATOS METEOROLÓGICOS
ULTIMOS DATOS

Año-Mes-Dia
Ubicación: Pazo Baión - Vilanova Arousa Ubicación de la estación en Google Maps
Fecha Instalación: 01/07/2010
Situación: 42º 33' 53.9" N  8º 43' 10.7" W
Intervalo de registro de datos: 10 min.
  La hora indicada esta referida a GMT.


Fecha Hora
[GMT]
Temperatura del Aire
[ºC]
Hum. Relativa
[%]
Temperatura del Suelo
[ºC]
Hum. Foliar
[min]
Rad. Solar
[W/m2]
Velocidad del Viento
[m/seg]
Precipitaciones
[mm]
Punto de Rocío
[ºC]
Min Media Max Min Media Max Media Max Min Media
21/02/2017 21:10 14,79 14,88 14,97 76,71 11,8 11,8 11,8 0 0 0 0 0 10,5 10,6
21/02/2017 21:00 15,06 15,09 15,13 75,87 11,7 11,7 11,8 0 0 0 0 0 10,7 10,7
21/02/2017 20:50 15,26 15,28 15,31 75,36 11,7 11,7 11,8 0 0 0 0,1 0 10,8 10,8
21/02/2017 20:40 15,61 15,68 15,75 73,47 11,7 11,7 11,8 0 0 0,1 0,1 0 10,8 10,8
21/02/2017 20:30 15,96 16,04 16,12 72,37 11,8 11,8 11,8 0 0 0,1 0,2 0 10,9 11
21/02/2017 20:20 15,98 16,06 16,14 72,33 11,7 11,7 11,8 0 0 0,1 0,2 0 10,9 11
21/02/2017 20:10 16,19 16,31 16,43 71,7 11,7 11,7 11,8 0 0 0,1 0,1 0 11,1 11,1
21/02/2017 20:00 16,52 16,52 16,52 71,38 11,7 11,7 11,7 0 0 0 0,1 0 11,2 11,2
21/02/2017 19:50 16,46 16,59 16,73 71,35 11,6 11,6 11,7 0 0 0 0 0 11,1 11,1
21/02/2017 19:40 16,97 17,01 17,06 70,02 11,7 11,7 11,7 0 0 0,2 0,4 0 11,3 11,3
21/02/2017 19:30 17,02 17,08 17,14 69,91 11,7 11,7 11,7 0 0 0 0 0 11,4 11,4
21/02/2017 19:20 17,33 17,46 17,6 68,49 11,6 11,6 11,7 0 0 0 0 0 11,3 11,4
21/02/2017 19:10 17,78 17,9 18,02 67,09 11,6 11,6 11,7 0 0 0 0 0 11,5 11,5
21/02/2017 19:00 18,46 18,65 18,84 64,76 11,6 11,7 11,8 0 0 0 0 0 11,7 11,8
21/02/2017 18:50 19,23 19,38 19,54 62,46 11,6 11,6 11,7 0 0 0,2 0,3 0 11,8 11,9
21/02/2017 18:40 19,9 19,91 19,92 59,87 11,6 11,6 11,7 0 0 0,4 0,6 0 11,7 11,8
21/02/2017 18:30 20,04 20,08 20,13 58,48 11,6 11,6 11,6 0 8 0,8 1 0 11,3 11,5
21/02/2017 18:20 20,24 20,26 20,28 56,84 11,6 11,6 11,6 0 10 0,9 1,1 0 11,1 11,2
21/02/2017 18:10 20,36 20,41 20,46 55,76 11,6 11,6 11,6 0 15 1,3 1,4 0 11 11,1
21/02/2017 18:00 20,59 20,6 20,62 55,38 11,6 11,6 11,6 0 66 1,1 1,2 0 11,2 11,2
21/02/2017 17:50 20,56 20,65 20,74 55,35 11,6 11,6 11,6 0 76 1,5 1,7 0 11,2 11,2
21/02/2017 17:40 21,13 21,19 21,25 54,41 11,6 11,6 11,6 0 87 0,5 0,5 0 11,4 11,4
21/02/2017 17:30 20,96 21,19 21,42 53,06 11,6 11,6 11,6 0 96 0,7 1 0 11 11
21/02/2017 17:20 20,78 21 21,22 53,67 11,6 11,6 11,6 0 102 1,5 2 0 10,5 11
21/02/2017 17:10 21,17 21,4 21,64 51,68 11,6 11,6 11,6 0 113 0,6 0,9 0 10,7 10,8
21/02/2017 17:00 20,9 20,97 21,05 53,43 11,6 11,6 11,6 0 121 1,1 1,4 0 11 11
21/02/2017 16:50 20,79 20,79 20,79 50,89 11,6 11,6 11,6 0 130 1,5 1,7 0 9,9 10
21/02/2017 16:40 20,68 20,84 21 51,6 11,5 11,5 11,6 0 140 1,3 1,6 0 9,8 10,3
21/02/2017 16:30 20,84 20,88 20,93 51,52 11,5 11,5 11,6 0 147 1,1 1,1 0 10 10,5
21/02/2017 16:20 20,86 20,91 20,97 52,52 11,6 11,6 11,6 0 157 0,9 1,1 0 10,3 10,6
21/02/2017 16:10 20,89 20,91 20,93 53,32 11,6 11,6 11,6 0 165 0,8 0,9 0 10,9 10,9
21/02/2017 16:00 20,58 20,7 20,83 52,42 11,5 11,5 11,5 0 170 0,8 1 0 10,3 10,4
21/02/2017 15:50 20,74 20,74 20,75 51,03 11,5 11,5 11,6 0 179 0,6 0,7 0 9,9 10
21/02/2017 15:40 20,77 20,79 20,81 53,88 11,6 11,6 11,6 0 183 0,6 0,8 0 10,3 10,9
21/02/2017 15:30 19,99 20,08 20,18 52,56 11,6 11,6 11,6 0 189 1,1 1,5 0 9,7 9,8
21/02/2017 15:20 20,19 20,25 20,32 51,17 11,6 11,6 11,6 0 195 0,8 1,1 0 9,2 9,5
21/02/2017 15:10 20,09 20,16 20,23 52,29 11,6 11,6 11,6 0 199 0,9 1,1 0 9,3 9,8
21/02/2017 15:00 19,92 20,26 20,61 53,22 11,6 11,6 11,6 0 205 0,7 1 0 9,8 10,2
21/02/2017 14:50 20 20,25 20,5 52,9 11,5 11,5 11,6 0 207 0,4 0,5 0 10,1 10,2
21/02/2017 14:40 19,66 19,86 20,07 53,09 11,6 11,6 11,6 0 213 0,5 0,8 0 9,5 9,8
21/02/2017 14:30 18,92 19,32 19,72 55,83 11,6 11,6 11,6 0 214 1,4 2 0 9,7 10,2
21/02/2017 14:20 19,03 19,19 19,36 55,51 11,6 11,6 11,6 0 216 0,6 0,8 0 9,8 9,9
21/02/2017 14:10 18,46 18,63 18,8 55,02 11,6 11,6 11,6 0 216 1,3 1,8 0 8,9 9,2
21/02/2017 14:00 18,44 18,85 19,26 59,7 11,6 11,6 11,6 0 217 1,1 1,5 0 9,7 10,7
21/02/2017 13:50 18,62 18,72 18,82 57,29 11,5 11,5 11,6 0 218 0,8 1,1 0 9,8 10
21/02/2017 13:40 18,04 18,37 18,7 58,34 11,5 11,5 11,6 0 217 0,6 1,1 0 9,9 9,9
21/02/2017 13:30 18,06 18,07 18,09 58,02 11,5 11,5 11,6 0 216 0,6 0,6 0 9,4 9,5
21/02/2017 13:20 18,15 18,26 18,37 58,6 11,6 11,6 11,6 0 216 0,4 0,5 0 9,7 9,8
21/02/2017 13:10 17,64 17,8 17,97 60,66 11,6 11,6 11,6 0 215 0,6 0,7 0 9,8 9,9
21/02/2017 13:00 17,22 17,33 17,44 61,5 11,6 11,6 11,6 0 213 0,6 0,9 0 9,6 9,7
21/02/2017 12:50 17,24 17,31 17,39 60,66 11,6 11,6 11,7 0 210 0,2 0,3 0 9,4 9,5
21/02/2017 12:40 17,03 17,03 17,03 62,97 11,6 11,6 11,6 0 205 0,3 0,5 0 9,7 9,8
21/02/2017 12:30 16,73 16,75 16,78 63,36 11,6 11,6 11,6 0 201 0,4 0,5 0 9,4 9,5
21/02/2017 12:20 16,15 16,28 16,41 64,66 11,6 11,6 11,7 0 169 0,5 0,7 0 9,3 9,4
21/02/2017 12:10 15,6 15,76 15,93 64,76 11,6 11,6 11,6 0 191 0,5 0,5 0 8,8 8,9
21/02/2017 12:00 15,5 15,6 15,71 65,05 11,6 11,6 11,7 0 184 0,4 0,5 0 8,7 8,9
21/02/2017 11:50 15,49 15,54 15,6 66,09 11,6 11,6 11,6 0 179 0,3 0,5 0 8,9 9,1
21/02/2017 11:40 14,9 15,01 15,13 66,41 11,6 11,6 11,7 0 172 0,5 0,7 0 8,6 8,7
21/02/2017 11:30 15,02 15,07 15,12 66,55 11,5 11,5 11,6 0 161 0,3 0,4 0 8,7 8,7
21/02/2017 11:20 14,73 14,84 14,95 67,65 11,6 11,6 11,6 0 158 0,5 0,7 0 8,6 8,7
21/02/2017 11:10 14,49 14,55 14,62 69,44 11,6 11,6 11,6 0 149 0,6 0,8 0 8,8 8,9
21/02/2017 11:00 14,08 14,2 14,32 70,76 11,6 11,6 11,6 0 137 0,4 0,5 0 8,6 8,7
21/02/2017 10:50 13,8 13,88 13,97 71,95 11,6 11,6 11,6 0 133 0,3 0,4 0 8,7 8,7
21/02/2017 10:40 13,38 13,52 13,66 72,51 11,6 11,6 11,6 0 44 0,3 0,3 0 8,4 8,5
21/02/2017 10:30 12,91 13,14 13,38 75,34 11,6 11,6 11,7 0 65 0,4 0,5 0 8,6 8,7
21/02/2017 10:20 12,59 12,61 12,64 77,1 11,6 11,6 11,7 0 103 0,4 0,5 0 8,6 8,6
21/02/2017 10:10 12,25 12,37 12,49 78 11,6 11,6 11,7 0 13 0,4 0,7 0 8,5 8,5
21/02/2017 10:00 11,8 11,93 12,07 80,65 11,6 11,6 11,7 0 11 0,6 0,7 0 8,5 8,5
21/02/2017 09:50 11,22 11,38 11,54 83,13 11,7 11,7 11,7 0 39 0,4 0,5 0 8,4 8,4
21/02/2017 09:40 11,12 11,13 11,15 83,45 11,6 11,6 11,7 0 62 0,2 0,2 0 8,3 8,3
21/02/2017 09:30 10,92 11 11,08 84,09 11,6 11,6 11,7 0 43 0,2 0,2 0 8,2 8,2
21/02/2017 09:20 10,67 10,75 10,84 85,13 11,6 11,6 11,7 0 33 0,5 0,6 0 8,2 8,2
21/02/2017 09:10 10,39 10,41 10,44 85,59 11,6 11,6 11,7 0 0 0,2 0,2 0 7,9 7,9
21/02/2017 09:00 10,33 10,37 10,42 85,58 11,6 11,6 11,7 0 0 0,6 0,7 0 7,9 7,9
21/02/2017 08:50 10,07 10,16 10,25 86,27 11,7 11,7 11,7 0 0 0,3 0,6 0 7,8 7,9
21/02/2017 08:40 9,83 9,92 10,02 86,97 11,6 11,6 11,7 0 0 0,1 0,2 0 7,6 7,7
21/02/2017 08:30 9,72 9,75 9,78 88,05 11,5 11,5 11,6 0 0 0 0 0 7,6 7,7
21/02/2017 08:20 9,45 9,59 9,74 89,01 11,7 11,7 11,7 0 0 0 0,1 0 7,7 7,7
21/02/2017 08:10 9,55 9,61 9,67 89,64 11,7 11,7 11,7 0 0 0 0,1 0 7,8 7,9
21/02/2017 08:00 9,4 9,4 9,41 89,05 11,7 11,7 11,7 0 0 0 0,1 0 7,5 7,6
21/02/2017 07:50 9,62 9,77 9,92 87,28 11,7 11,7 11,7 0 0 0 0,1 0 7,5 7,6
21/02/2017 07:40 10,14 10,15 10,16 87 11,7 11,7 11,8 0 0 0,3 0,3 0 7,9 7,9
21/02/2017 07:30 10,29 10,29 10,3 86,78 11,7 11,7 11,7 0 0 0,2 0,2 0 8 8
21/02/2017 07:20 10,24 10,24 10,25 86,87 11,7 11,7 11,8 0 0 0,2 0,2 0 8 8
21/02/2017 07:10 10,18 10,2 10,23 86,65 11,7 11,7 11,7 0 0 0,1 0,2 0 7,9 7,9
21/02/2017 07:00 10,35 10,41 10,47 86,44 11,7 11,7 11,7 0 0 0,1 0,1 0 8,1 8,1
21/02/2017 06:50 10,35 10,44 10,53 86 11,7 11,7 11,7 0 0 0 0,1 0 7,9 8,1
21/02/2017 06:40 10,56 10,56 10,57 85,73 11,7 11,7 11,7 0 0 0,1 0,2 0 8,1 8,1
21/02/2017 06:30 10,59 10,6 10,62 85,51 11,6 11,6 11,7 0 0 0,1 0,2 0 8,1 8,1
21/02/2017 06:20 10,52 10,61 10,71 84,69 11,7 11,7 11,7 0 0 0 0,1 0 7,9 8
21/02/2017 06:10 10,57 10,66 10,76 84,84 11,7 11,7 11,7 0 0 0,2 0,2 0 7,9 8
21/02/2017 06:00 10,62 10,64 10,67 85,16 11,7 11,7 11,7 0 0 0,1 0,2 0 8,2 8,2
21/02/2017 05:50 10,67 10,68 10,69 85,21 11,7 11,7 11,7 0 0 0,2 0,3 0 8,2 8,2
21/02/2017 05:40 10,58 10,61 10,64 85,19 11,7 11,7 11,7 0 0 0,1 0,2 0 8,1 8,1
21/02/2017 05:30 10,63 10,65 10,68 85,17 11,7 11,7 11,7 0 0 0,2 0,2 0 8,2 8,2
21/02/2017 05:20 10,63 10,67 10,71 85,47 11,7 11,7 11,7 0 0 0,2 0,3 0 8,2 8,2
21/02/2017 05:10 10,46 10,51 10,56 85,58 11,7 11,7 11,7 0 0 0,2 0,3 0 8 8
21/02/2017 05:00 10,43 10,48 10,53 85,46 11,7 11,7 11,7 0 0 0,1 0,2 0 8 8
21/02/2017 04:50 10,41 10,46 10,52 85,21 11,7 11,7 11,7 0 0 0 0 0 8 8
21/02/2017 04:40 10,38 10,47 10,57 84,06 11,7 11,7 11,7 0 0 0 0 0 7,7 7,7
21/02/2017 04:30 10,68 10,79 10,9 82,83 11,7 11,7 11,7 0 0 0,1 0,2 0 7,8 7,9
21/02/2017 04:20 10,79 10,83 10,88 83,17 11,7 11,7 11,7 0 0 0,1 0,2 0 7,9 7,9
21/02/2017 04:10 10,65 10,66 10,68 83,26 11,7 11,7 11,7 0 0 0,1 0,2 0 7,7 7,7
21/02/2017 04:00 10,82 10,9 10,99 82,34 11,7 11,7 11,7 0 0 0,1 0,2 0 7,8 7,8
21/02/2017 03:50 11,12 11,18 11,24 81,46 11,7 11,7 11,7 0 0 0,2 0,3 0 8 8
21/02/2017 03:40 11,35 11,4 11,46 80,48 11,7 11,7 11,7 0 0 0,4 0,5 0 8 8
21/02/2017 03:30 11,51 11,51 11,52 80,09 11,6 11,6 11,7 0 0 0,4 0,6 0 8,2 8,2
21/02/2017 03:20 11,48 11,54 11,6 79,99 11,6 11,6 11,6 0 0 0,5 0,5 0 7,9 8,1
21/02/2017 03:10 11,57 11,57 11,58 80,21 11,6 11,6 11,7 0 0 0,4 0,5 0 8,2 8,2
21/02/2017 03:00 11,47 11,5 11,54 80,95 11,7 11,7 11,7 0 0 0,2 0,3 0 8,2 8,2
21/02/2017 02:50 11,51 11,51 11,52 80,78 11,6 11,6 11,7 0 0 0,2 0,3 0 8,2 8,3
21/02/2017 02:40 11,48 11,49 11,5 80,54 11,6 11,6 11,7 0 0 0,2 0,4 0 8,1 8,1
21/02/2017 02:30 11,64 11,64 11,65 79,59 11,6 11,6 11,7 0 0 0,3 0,5 0 8,1 8,1
21/02/2017 02:20 11,64 11,64 11,65 79,33 11,6 11,6 11,6 0 0 0,1 0,2 0 7,9 8
21/02/2017 02:10 11,84 11,87 11,91 78,14 11,6 11,6 11,6 0 0 1,1 1,1 0 8 8
21/02/2017 02:00 11,57 11,71 11,86 78,26 11,6 11,7 11,8 0 0 0,6 0,9 0 7,8 7,8
21/02/2017 01:50 11,49 11,62 11,76 77,05 11,7 11,7 11,7 0 0 0,1 0,2 0 7,5 7,5
21/02/2017 01:40 11,83 11,88 11,94 75,48 11,6 11,6 11,6 0 0 0,6 0,7 0 7,5 7,5
21/02/2017 01:30 11,84 11,91 11,98 75,26 11,6 11,6 11,7 0 0 0,4 0,6 0 7,4 7,4
21/02/2017 01:20 11,93 11,98 12,03 74,94 11,6 11,6 11,6 0 0 0,2 0,2 0 7,5 7,5
21/02/2017 01:10 12,15 12,18 12,21 73,92 11,6 11,6 11,7 0 0 0,2 0,3 0 7,4 7,4
21/02/2017 01:00 12,15 12,15 12,16 74,53 11,6 11,6 11,7 0 0 0,4 0,5 0 7,6 7,6
21/02/2017 00:50 12,09 12,13 12,18 75,4 11,6 11,6 11,6 0 0 0,4 0,6 0 7,6 7,6
21/02/2017 00:40 12,11 12,14 12,18 76,55 11,6 11,6 11,7 0 0 0,1 0,2 0 8 8
21/02/2017 00:30 12,17 12,22 12,27 77,13 11,6 11,6 11,6 0 0 0,4 0,6 0 8,1 8,1
21/02/2017 00:20 12 12,06 12,12 79,16 11,5 11,5 11,6 0 0 0,3 0,5 0 8,4 8,4
21/02/2017 00:10 12,12 12,16 12,2 80,13 11,5 11,5 11,6 0 0 0 0,1 0 8,6 8,7
21/02/2017 00:00 12,03 12,11 12,2 80,58 11,5 11,5 11,6 0 0 0 0,1 0 8,7 8,8
20/02/2017 23:50 12,32 12,34 12,37 80,39 11,6 11,6 11,6 0 0 0 0,1 0 9 9
20/02/2017 23:40 12,22 12,33 12,45 80,37 11,6 11,6 11,6 0 0 0 0,1 0 8,9 9
20/02/2017 23:30 12,52 12,62 12,72 78,92 11,5 11,5 11,5 0 0 0 0,1 0 9 9
20/02/2017 23:20 12,81 12,82 12,83 78,28 11,5 11,5 11,5 0 0 0 0,1 0 9,1 9,1
20/02/2017 23:10 12,9 12,98 13,06 77,54 11,5 11,5 11,5 0 0 0 0,1 0 9,1 9,1
20/02/2017 23:00 13,23 13,25 13,27 76,63 11,6 11,6 11,6 0 0 0,2 0,3 0 9,1 9,1
20/02/2017 22:50 13,28 13,37 13,46 75,8 11,5 11,5 11,5 0 0 0,3 0,5 0 9,1 9,1
20/02/2017 22:40 13,6 13,65 13,7 74,85 11,5 11,5 11,6 0 0 0,8 0,8 0 9,2 9,2
20/02/2017 22:30 13,66 13,7 13,75 74,73 11,5 11,5 11,5 0 0 0,5 0,5 0 9,1 9,1
20/02/2017 22:20 13,77 13,77 13,77 74,49 11,5 11,5 11,6 0 0 0,4 0,6 0 9,2 9,2
20/02/2017 22:10 13,73 13,82 13,92 74,69 11,5 11,5 11,5 0 0 0,2 0,2 0 9,2 9,2
20/02/2017 22:00 13,95 13,99 14,03 74,51 11,5 11,5 11,5 0 0 0,3 0,5 0 9,3 9,3
20/02/2017 21:50 14,06 14,11 14,17 74,54 11,4 11,4 11,5 0 0 0,2 0,2 0 9,4 9,4
20/02/2017 21:40 14,05 14,06 14,08 75,9 11,5 11,5 11,5 0 0 0,2 0,3 0 9,6 9,7
20/02/2017 21:30 14,13 14,15 14,18 75,89 11,5 11,5 11,5 0 0 0,1 0,1 0 9,7 9,7
20/02/2017 21:20 14,35 14,36 14,37 75,75 11,5 11,5 11,5 0 0 0,1 0,2 0 9,9 9,9
20/02/2017 21:10 14,21 14,26 14,32 77,51 11,4 11,4 11,5 0 0 0,3 0,3 0 10,1 10,2
20/02/2017 21:00 14,2 14,25 14,31 78,96 11,4 11,4 11,5 0 0 0,2 0,3 0 10,4 10,4
20/02/2017 20:50 14,28 14,33 14,38 79,48 11,4 11,4 11,5 0 0 0,2 0,3 0 10,6 10,6
20/02/2017 20:40 14,45 14,53 14,62 78,79 11,4 11,4 11,4 0 0 0,2 0,2 0 10,8 10,8
20/02/2017 20:30 14,77 14,77 14,78 77,91 11,4 11,4 11,4 0 0 0,1 0,2 0 10,7 10,8
20/02/2017 20:20 15,1 15,19 15,29 76,1 11,4 11,4 11,4 0 0 0,1 0,2 0 10,8 10,8
20/02/2017 20:10 15,33 15,37 15,42 75,52 11,4 11,4 11,4 0 0 0,2 0,3 0 10,9 10,9
20/02/2017 20:00 15,6 15,67 15,74 74,1 11,3 11,3 11,3 0 0 0,4 0,5 0 10,9 10,9
20/02/2017 19:50 16,05 16,11 16,18 72,04 11,4 11,4 11,4 0 0 1,1 1,3 0 10,8 10,9
20/02/2017 19:40 16,3 16,34 16,38 71,25 11,3 11,3 11,4 0 0 1,3 1,4 0 11 11
20/02/2017 19:30 16,44 16,55 16,66 70,48 11,3 11,3 11,4 0 0 1,7 1,8 0 10,9 11
20/02/2017 19:20 16,83 16,86 16,89 69,4 11,4 11,4 11,4 0 0 2 2,3 0 11,1 11,1
20/02/2017 19:10 17,02 17,06 17,1 68,57 11,3 11,3 11,4 0 0 1,4 1,8 0 11,1 11,1
20/02/2017 19:00 17,11 17,28 17,45 67,38 11,3 11,3 11,4 0 0 0,5 0,5 0 11 11,1
20/02/2017 18:50 17,76 17,8 17,84 65,26 11,3 11,3 11,4 0 0 0,7 0,8 0 11 11
20/02/2017 18:40 17,74 17,82 17,91 65,58 11,3 11,3 11,4 0 0 0,4 0,5 0 11 11,1
20/02/2017 18:30 17,99 18,1 18,21 64,19 11,3 11,3 11,3 0 9 0,8 1,4 0 11 11,1
20/02/2017 18:20 18,22 18,37 18,52 63,57 11,2 11,2 11,3 0 10 0,8 1,3 0 11 11,1
20/02/2017 18:10 18,48 18,52 18,57 63,54 11,3 11,3 11,3 0 20 1,1 1,2 0 11,2 11,2
20/02/2017 18:00 18,46 18,65 18,85 62,79 11,4 11,4 11,4 0 50 1,7 2,1 0 11 11,2
20/02/2017 17:50 18,98 18,99 19 61,51 11,3 11,3 11,4 0 84 2,3 2,3 0 11,2 11,2
20/02/2017 17:40 19,14 19,18 19,22 60,56 11,3 11,3 11,3 0 87 2,3 2,3 0 11 11,2
20/02/2017 17:30 19,34 19,34 19,35 58,94 11,3 11,3 11,4 0 97 2,1 2,3 0 10,8 10,9
20/02/2017 17:20 19,39 19,51 19,64 58,66 11,3 11,3 11,3 0 103 1,6 2,1 0 11,1 11,1
20/02/2017 17:10 19,69 19,74 19,8 59,19 11,2 11,2 11,3 0 113 1,4 1,4 0 11,1 11,3
20/02/2017 17:00 19,69 19,74 19,8 57,67 11,3 11,3 11,4 0 119 1,4 1,8 0 10,8 10,9
20/02/2017 16:50 19,75 19,78 19,82 57,61 11,3 11,3 11,3 0 128 1,5 1,8 0 10,8 11
20/02/2017 16:40 19,81 19,9 20 55,23 11,3 11,3 11,3 0 138 1,6 1,8 0 10,2 10,4
20/02/2017 16:30 20,17 20,18 20,19 55,4 11,1 11,2 11,3 0 145 1,1 1,2 0 10,5 10,8
20/02/2017 16:20 20,43 20,51 20,6 55,37 11,3 11,3 11,3 0 153 0,3 0,5 0 10,8 11,1
20/02/2017 16:10 19,83 19,89 19,96 56,08 11,3 11,3 11,3 0 161 1 1,1 0 10,8 10,8
20/02/2017 16:00 19,46 19,56 19,66 54,38 11,3 11,3 11,3 0 167 1,9 2,3 0 9,8 9,9
20/02/2017 15:50 19,39 19,4 19,42 54,19 11,3 11,3 11,3 0 172 1,8 2 0 9,6 9,7
20/02/2017 15:40 19,27 19,31 19,36 53,8 11,3 11,3 11,4 0 180 1,7 2 0 9,4 9,6
20/02/2017 15:30 19,29 19,55 19,82 54,36 11,3 11,3 11,3 0 187 1,3 1,9 0 9,4 9,8
20/02/2017 15:20 19,08 19,23 19,38 52,71 11,2 11,2 11,3 0 191 1,5 1,7 0 9,2 9,2
20/02/2017 15:10 19,65 19,78 19,91 52,03 11,3 11,3 11,3 0 199 0,5 0,5 0 9,5 9,5
20/02/2017 15:00 19,53 19,63 19,74 52,41 11,3 11,3 11,4 0 196 0,5 0,5 0 9,1 9,3
20/02/2017 14:50 18,79 18,89 19 52,77 11,2 11,2 11,3 0 192 1,1 1,3 0 8,7 8,9
20/02/2017 14:40 18,95 19,09 19,23 51,75 11,2 11,2 11,3 0 206 0,7 0,8 0 8,6 8,7
20/02/2017 14:30 18,87 18,87 18,88 51,73 11,3 11,3 11,3 0 213 0,8 0,9 0 7,9 8,4
20/02/2017 14:20 18,6 18,69 18,79 51,78 11,4 11,4 11,4 0 216 0,7 1 0 8,1 8,3
20/02/2017 14:10 18,24 18,3 18,37 49,83 11,3 11,3 11,4 0 215 0,8 0,9 0 7,4 7,5
20/02/2017 14:00 18,26 18,35 18,45 51,14 11,3 11,3 11,3 0 216 0,7 0,8 0 7,3 7,8
20/02/2017 13:50 17,64 17,8 17,97 49,27 11,3 11,3 11,3 0 216 0,9 1 0 6,5 6,7
20/02/2017 13:40 17,66 17,9 18,14 48,26 11,3 11,3 11,3 0 215 0,8 1,2 0 6,3 6,5
20/02/2017 13:30 17,83 18 18,18 49,27 11,3 11,3 11,3 0 209 0,4 0,5 0 6,7 6,9
20/02/2017 13:20 17,45 17,48 17,51 48,17 11,3 11,3 11,4 0 212 0,5 0,6 0 6,1 6,2
20/02/2017 13:10 17,39 17,45 17,52 49,59 11,3 11,3 11,4 0 203 0,5 0,5 0 6,5 6,6
20/02/2017 13:00 17,12 17,28 17,44 49,13 11,3 11,3 11,4 0 212 0,3 0,5 0 6,3 6,3
20/02/2017 12:50 16,94 16,95 16,97 50,75 11,4 11,4 11,4 0 210 0,7 0,8 0 6,4 6,5
20/02/2017 12:40 16,62 16,8 16,99 51,96 11,3 11,3 11,4 0 206 0,3 0,5 0 6,7 6,7
20/02/2017 12:30 16,38 16,43 16,48 51,53 11,3 11,3 11,4 0 204 0,5 0,5 0 6,2 6,2
20/02/2017 12:20 16,37 16,4 16,43 52,68 11,3 11,3 11,4 0 193 0,5 0,5 0 6,5 6,6
20/02/2017 12:10 15,97 16,06 16,15 51,16 11,4 11,4 11,4 0 191 0,4 0,4 0 5,5 5,7
20/02/2017 12:00 15,96 15,99 16,02 53,63 11,4 11,4 11,4 0 186 0,4 0,5 0 6,2 6,4
20/02/2017 11:50 15,36 15,41 15,46 55,2 11,4 11,4 11,4 0 179 0,4 0,6 0 6,1 6,2
20/02/2017 11:40 14,91 14,95 14,99 54,87 11,3 11,3 11,4 0 171 0,5 0,5 0 5,4 5,8
20/02/2017 11:30 14,59 14,63 14,68 55,71 11,4 11,4 11,4 0 144 0,3 0,5 0 5,6 5,6
20/02/2017 11:20 14,44 14,52 14,61 57,76 11,4 11,4 11,5 0 157 0,3 0,5 0 5,9 6,1
20/02/2017 11:10 13,92 14,01 14,11 58,17 11,3 11,3 11,4 0 149 0,6 0,6 0 5,5 5,7
20/02/2017 11:00 13,6 13,68 13,76 59,79 11,3 11,4 11,5 0 141 0,3 0,5 0 5,8 5,9
20/02/2017 10:50 13,23 13,27 13,31 62,75 11,4 11,4 11,5 0 131 0,3 0,3 0 6,1 6,1
20/02/2017 10:40 12,84 12,98 13,12 62,6 11,5 11,5 11,5 0 30 0,2 0,3 0 5,9 5,9
20/02/2017 10:30 12,29 12,53 12,78 64,35 11,5 11,5 11,5 0 64 0,2 0,3 0 5,8 5,8
20/02/2017 10:20 11,94 11,99 12,05 66,77 11,3 11,4 11,5 0 87 0,3 0,5 0 5,9 5,9
20/02/2017 10:10 11,56 11,69 11,83 68,6 11,5 11,5 11,5 0 15 0,3 0,5 0 5,9 5,9
20/02/2017 10:00 10,91 11,1 11,3 70,92 11,3 11,4 11,5 0 12 0,1 0,2 0 5,8 5,8
20/02/2017 09:50 10,16 10,28 10,4 74,09 11,5 11,5 11,5 0 39 0,1 0,2 0 5,7 5,7
20/02/2017 09:40 9,68 9,68 9,69 76,35 11,4 11,4 11,4 0 55 0 0,1 0 5,4 5,5
20/02/2017 09:30 9,63 9,67 9,72 75,84 11,5 11,5 11,5 0 39 0 0 0 5,5 5,5
20/02/2017 09:20 9,11 9,26 9,42 78,19 11,5 11,5 11,5 0 30 0,2 0,2 0 5,6 5,6
20/02/2017 09:10 8,57 8,65 8,73 81,54 11,5 11,5 11,5 0 0 0,1 0,1 0 5,4 5,5
20/02/2017 09:00 8,36 8,38 8,41 82,85 11,5 11,5 11,5 0 0 0,1 0,2 0 5,5 5,5
20/02/2017 08:50 8,32 8,34 8,37 82,81 11,5 11,5 11,6 0 0 0,1 0,2 0 5,4 5,4
20/02/2017 08:40 8,27 8,27 8,28 82,77 11,5 11,5 11,5 0 0 0 0,1 0 5,3 5,4
20/02/2017 08:30 8,29 8,29 8,29 82,57 11,5 11,5 11,5 0 0 0 0 0 5,3 5,3
20/02/2017 08:20 8,3 8,3 8,3 83,01 11,5 11,5 11,6 0 0 0 0 0 5,4 5,5
20/02/2017 08:10 8,11 8,19 8,28 84,28 11,5 11,5 11,5 0 0 0 0 0 5,5 5,5
20/02/2017 08:00 8,01 8,01 8,02 86,02 11,6 11,6 11,6 0 0 0 0 0 5,6 5,7
20/02/2017 07:50 7,63 7,63 7,64 87,04 11,5 11,5 11,5 0 0 0 0 0 5,6 5,6
20/02/2017 07:40 7,66 7,7 7,74 86,85 11,5 11,5 11,5 0 0 0 0 0 5,4 5,4
20/02/2017 07:30 7,81 7,83 7,86 86,67 11,5 11,5 11,5 0 0 0 0 0 5,6 5,6
20/02/2017 07:20 7,84 7,89 7,94 86,09 11,5 11,5 11,5 0 0 0 0 0 5,5 5,5
20/02/2017 07:10 8,09 8,1 8,12 86,22 11,5 11,5 11,5 0 0 0 0,1 0 5,8 5,8
20/02/2017 07:00 7,76 7,76 7,76 86,53 11,4 11,5 11,6 0 0 0 0 0 5,5 5,5
20/02/2017 06:50 7,93 7,97 8,02 86,31 11,5 11,5 11,5 0 0 0 0 0 5,7 5,7
20/02/2017 06:40 7,96 7,98 8,01 86,97 11,5 11,5 11,6 0 0 0,1 0,2 0 5,8 5,8
20/02/2017 06:30 7,77 7,79 7,82 88,2 11,5 11,5 11,6 0 0 0 0 0 5,7 5,8
20/02/2017 06:20 7,48 7,49 7,51 89,37 11,5 11,5 11,5 0 0 0 0 0 5,7 5,7
20/02/2017 06:10 7,32 7,36 7,4 89,53 11,5 11,5 11,6 0 0 0 0 0 5,6 5,6
20/02/2017 06:00 7,31 7,33 7,35 89,38 11,5 11,5 11,5 0 0 0 0 0 5,6 5,6
20/02/2017 05:50 7,11 7,2 7,29 89,31 11,5 11,5 11,5 0 0 0 0 0 5,3 5,4
20/02/2017 05:40 7,48 7,54 7,61 88,42 11,5 11,5 11,6 0 0 0 0 0 5,5 5,6
20/02/2017 05:30 7,27 7,28 7,3 88,35 11,5 11,5 11,6 0 0 0 0 0 5,3 5,3
20/02/2017 05:20 7,23 7,34 7,46 88,61 11,5 11,5 11,5 0 0 0 0 0 5,3 5,4
20/02/2017 05:10 7,19 7,37 7,56 88,42 11,6 11,6 11,6 0 0 0 0 0 5,3 5,4
20/02/2017 05:00 7,47 7,5 7,53 87,18 11,5 11,5 11,6 0 0 0 0 0 5,2 5,3
20/02/2017 04:50 7,7 7,8 7,91 87,35 11,6 11,6 11,6 0 0 0 0 0 5,7 5,8
20/02/2017 04:40 7,56 7,68 7,8 87,53 11,5 11,5 11,5 0 0 0 0 0 5,5 5,6
20/02/2017 04:30 7,4 7,53 7,67 87,61 11,5 11,5 11,6 0 0 0 0 0 5,4 5,5
20/02/2017 04:20 7,58 7,71 7,85 86,31 11,6 11,6 11,6 0 0 0 0 0 5,3 5,3
20/02/2017 04:10 7,89 8,02 8,16 85,49 11,6 11,6 11,6 0 0 0 0 0 5,4 5,5
20/02/2017 04:00 7,97 7,99 8,02 85,65 11,6 11,6 11,6 0 0 0 0 0 5,5 5,5
20/02/2017 03:50 7,86 7,89 7,93 86,09 11,6 11,6 11,6 0 0 0 0 0 5,4 5,5
20/02/2017 03:40 7,93 7,97 8,02 85,11 11,5 11,5 11,6 0 0 0 0 0 5,5 5,5
20/02/2017 03:30 8,22 8,25 8,28 84,36 11,4 11,5 11,6 0 0 0 0 0 5,7 5,7
20/02/2017 03:20 8,26 8,27 8,28 83,96 11,5 11,5 11,6 0 0 0 0 0 5,5 5,6
20/02/2017 03:10 8,48 8,54 8,6 82,44 11,5 11,5 11,6 0 0 0 0 0 5,5 5,6
20/02/2017 03:00 8,7 8,73 8,76 81,27 11,5 11,5 11,5 0 0 0 0 0 5,4 5,5
20/02/2017 02:50 8,99 9,06 9,14 79,29 11,5 11,5 11,6 0 0 0 0 0 5,5 5,5
20/02/2017 02:40 9,16 9,18 9,2 78,66 11,6 11,6 11,6 0 0 0 0 0 5,5 5,5
20/02/2017 02:30 9,46 9,54 9,62 76,49 11,4 11,5 11,7 0 0 0 0 0 5,4 5,5
20/02/2017 02:20 9,7 9,8 9,91 75,49 11,5 11,5 11,6 0 0 0 0 0 5,5 5,6
20/02/2017 02:10 9,85 10 10,15 74,79 11,5 11,5 11,5 0 0 0,1 0,2 0 5,6 5,6
20/02/2017 02:00 10,08 10,14 10,2 74,34 11,5 11,5 11,5 0 0 0,1 0,2 0 5,6 5,7
20/02/2017 01:50 10,23 10,28 10,33 74,15 11,5 11,5 11,6 0 0 0,2 0,3 0 5,7 5,7
20/02/2017 01:40 10,07 10,07 10,08 75,58 11,6 11,6 11,6 0 0 0,1 0,1 0 5,8 5,8
20/02/2017 01:30 10,13 10,15 10,18 75,06 11,5 11,5 11,5 0 0 0,1 0,1 0 5,7 5,8
20/02/2017 01:20 9,94 10,08 10,23 75,94 11,6 11,6 11,6 0 0 0,1 0,3 0 5,9 5,9
20/02/2017 01:10 10,18 10,22 10,26 75,54 11,5 11,5 11,6 0 0 0,1 0,1 0 5,9 5,9
20/02/2017 01:00 10,42 10,46 10,51 75,2 11,5 11,5 11,6 0 0 0,2 0,2 0 6,1 6,1
20/02/2017 00:50 10,53 10,59 10,66 74,78 11,5 11,5 11,5 0 0 0,3 0,6 0 6,2 6,2
20/02/2017 00:40 10,71 10,74 10,78 74,67 11,5 11,5 11,5 0 0 0,2 0,3 0 6,3 6,4
20/02/2017 00:30 10,55 10,59 10,64 76,15 11,5 11,5 11,5 0 0 0,2 0,3 0 6,4 6,4
20/02/2017 00:20 10,52 10,52 10,53 77,27 11,4 11,4 11,5 0 0 0,2 0,4 0 6,6 6,6
20/02/2017 00:10 10,51 10,57 10,63 77,96 11,5 11,5 11,6 0 0 0,2 0,3 0 6,7 6,7
20/02/2017 00:00 10,6 10,63 10,67 78 11,5 11,5 11,5 0 0 0,2 0,2 0 6,7 6,8
19/02/2017 23:50 10,47 10,51 10,55 79,05 11,5 11,5 11,5 0 0 0,1 0,2 0 6,8 6,8
19/02/2017 23:40 10,49 10,52 10,55 79,62 11,5 11,5 11,5 0 0 0,1 0,2 0 6,9 6,9
19/02/2017 23:30 10,54 10,65 10,77 81,34 11,5 11,5 11,6 0 0 0 0 0 7,4 7,5
19/02/2017 23:20 10,32 10,38 10,44 83,96 11,4 11,4 11,5 0 0 0 0 0 7,5 7,5
19/02/2017 23:10 10,38 10,41 10,44 84,06 11,5 11,5 11,5 0 0 0 0 0 7,5 7,6
19/02/2017 23:00 10,35 10,43 10,52 85,03 11,5 11,5 11,5 0 0 0 0 0 7,9 8
19/02/2017 22:50 10,75 10,82 10,9 84,4 11,5 11,5 11,5 0 0 0 0 0 8,1 8,2
19/02/2017 22:40 10,9 10,95 11 84,23 11,5 11,5 11,5 0 0 0 0 0 8,2 8,2
19/02/2017 22:30 11,11 11,14 11,18 83,6 11,5 11,5 11,5 0 0 0 0 0 8,3 8,3
19/02/2017 22:20 11,37 11,42 11,48 82,39 11,4 11,4 11,5 0 0 0 0 0 8,3 8,3
19/02/2017 22:10 11,64 11,71 11,79 81,17 11,5 11,5 11,5 0 0 0 0 0 8,5 8,5
19/02/2017 22:00 11,67 11,68 11,69 81,61 11,4 11,4 11,5 0 0 0,1 0,1 0 8,5 8,5
19/02/2017 21:50 11,71 11,73 11,76 82,96 11,5 11,5 11,5 0 0 0 0 0 8,7 8,8
19/02/2017 21:40 11,81 11,83 11,85 83,2 11,4 11,4 11,5 0 0 0 0 0 9 9
19/02/2017 21:30 11,92 12,06 12,2 82,27 11,5 11,5 11,5 0 0 0 0 0 8,9 8,9
19/02/2017 21:20 12,54 12,55 12,56 81,66 11,4 11,4 11,5 0 0 0,4 0,5 0 9,3 9,4
19/02/2017 21:10 12,44 12,5 12,56 82,06 11,4 11,4 11,4 0 0 0,1 0,2 0 9,3 9,3
19/02/2017 21:00 12,57 12,78 12,99 80,24 11,4 11,4 11,4 0 0 0,4 0,6 0 9,1 9,2
19/02/2017 20:50 13,08 13,14 13,2 79,12 11,3 11,3 11,4 0 0 0,5 0,6 0 9,4 9,4
19/02/2017 20:40 13,2 13,2 13,2 78,5 11,3 11,3 11,4 0 0 0,1 0,2 0 9,5 9,5
19/02/2017 20:30 13,28 13,34 13,4 78,1 11,3 11,3 11,3 0 0 0,1 0,2 0 9,5 9,5
19/02/2017 20:20 13,58 13,68 13,78 76,65 11,3 11,3 11,3 0 0 0,3 0,5 0 9,4 9,5
19/02/2017 20:10 13,98 14,08 14,18 75,23 11,4 11,4 11,5 0 0 1,4 1,9 0 9,5 9,5
19/02/2017 20:00 14,21 14,25 14,29 74,95 11,3 11,3 11,4 0 0 1,4 1,6 0 9,6 9,6
19/02/2017 19:50 14,2 14,21 14,22 76,01 11,3 11,3 11,4 0 0 1 1,3 0 9,8 9,9
19/02/2017 19:40 14,16 14,2 14,25 75,99 11,3 11,3 11,4 0 0 0,6 0,8 0 9,7 9,8
19/02/2017 19:30 14,43 14,52 14,61 73,67 11,3 11,3 11,3 0 0 0,6 0,7 0 9,8 9,8
19/02/2017 19:20 14,82 14,83 14,85 71,48 11,3 11,3 11,3 0 0 0,8 1,1 0 9,6 9,6
19/02/2017 19:10 14,95 15,07 15,2 69,42 11,3 11,3 11,4 0 0 0,4 0,6 0 9,3 9,4
19/02/2017 19:00 15,44 15,54 15,64 66,55 11,3 11,3 11,4 0 0 0,7 0,8 0 9,1 9,2
19/02/2017 18:50 15,94 16,01 16,09 64,14 11,3 11,3 11,4 0 0 0,8 1,1 0 9 9
19/02/2017 18:40 16,07 16,1 16,14 63,34 11,3 11,3 11,4 0 0 1,1 1,1 0 8,8 8,9
19/02/2017 18:30 16,34 16,44 16,54 62,49 11,3 11,3 11,3 0 11 1,3 1,6 0 9 9,1
19/02/2017 18:20 16,47 16,53 16,6 61,89 11,3 11,3 11,3 0 14 0,9 1,1 0 9,1 9,1
19/02/2017 18:10 16,83 16,98 17,13 61,14 11,3 11,3 11,3 0 14 1 1,2 0 9,2 9,2
19/02/2017 18:00 17,45 17,55 17,66 58,95 11,3 11,3 11,3 0 71 1,3 1,4 0 9,1 9,3
19/02/2017 17:50 17,67 17,74 17,81 59,57 11,3 11,3 11,3 0 73 1,3 1,9 0 9,5 9,7
19/02/2017 17:40 17,69 17,78 17,88 58,57 11,2 11,2 11,3 0 87 1,3 1,6 0 9,2 9,3
19/02/2017 17:30 17,78 17,79 17,81 58,02 11,3 11,3 11,3 0 96 1,4 1,4 0 9,1 9,2
19/02/2017 17:20 18,07 18,14 18,22 58,13 11,3 11,3 11,3 0 105 0,7 0,8 0 9,4 9,7
19/02/2017 17:10 17,94 18,05 18,16 56,25 11,3 11,3 11,3 0 114 1,1 1,6 0 8,7 8,9
19/02/2017 17:00 17,91 17,92 17,94 56,33 11,3 11,3 11,3 0 122 1,6 1,7 0 8,7 9
19/02/2017 16:50 17,86 17,92 17,99 55,89 11,3 11,3 11,3 0 131 1,5 1,9 0 8,6 8,8
19/02/2017 16:40 17,65 17,86 18,07 55,63 11,1 11,2 11,3 0 105 1,1 1,7 0 8,6 8,6
19/02/2017 16:30 17,96 17,99 18,03 55,59 11,3 11,3 11,3 0 146 1,4 1,8 0 8,7 8,7
19/02/2017 16:20 17,81 17,92 18,03 54,59 11,3 11,3 11,3 0 156 1,8 2 0 8,4 8,5
19/02/2017 16:10 17,83 17,91 18 54,72 11,2 11,2 11,2 0 162 1,8 1,9 0 8,4 8,6
19/02/2017 16:00 17,89 17,99 18,09 53,53 11,2 11,2 11,3 0 171 1,8 2 0 7,8 8,2
19/02/2017 15:50 18,11 18,23 18,36 51,59 11,2 11,2 11,3 0 179 1,2 1,6 0 7,7 7,9
19/02/2017 15:40 17,82 17,83 17,84 51,97 11,1 11,2 11,3 0 184 2 2,1 0 7,5 7,6
19/02/2017 15:30 17,82 17,87 17,93 52,86 11,3 11,3 11,3 0 191 1,7 1,7 0 7,8 7,8
19/02/2017 15:20 17,53 17,61 17,69 52,48 11,3 11,3 11,3 0 197 2,2 2,3 0 7,5 7,5
19/02/2017 15:10 17,67 17,75 17,83 53,19 11,3 11,3 11,3 0 202 1,5 2 0 7,9 8
19/02/2017 15:00 17,85 17,86 17,87 54,4 11,2 11,2 11,3 0 206 1,2 1,5 0 8,4 8,4
19/02/2017 14:50 18,24 18,39 18,55 55,08 11,3 11,3 11,3 0 210 0,3 0,4 0 8,5 9
19/02/2017 14:40 17,7 17,75 17,8 57,21 11,3 11,3 11,3 0 213 0,7 0,9 0 8,8 9
19/02/2017 14:30 17,81 17,93 18,06 56,12 11,3 11,3 11,3 0 216 0,4 0,6 0 8,6 8,8
19/02/2017 14:20 17,07 17,41 17,75 57,39 11,3 11,3 11,4 0 217 0,9 1,3 0 8,4 8,7
19/02/2017 14:10 17,81 17,82 17,83 57,51 11,3 11,3 11,3 0 220 0,4 0,5 0 8,9 9,1
19/02/2017 14:00 16,69 17,19 17,69 61,25 11,3 11,3 11,3 0 220 0,7 1,2 0 9,3 9,4
19/02/2017 13:50 15,94 16,11 16,28 61 11,3 11,3 11,4 0 222 2 2,3 0 8,2 8,4
19/02/2017 13:40 16,53 16,54 16,55 58,91 11,4 11,4 11,4 0 224 0,7 0,8 0 8,2 8,3
19/02/2017 13:30 16,75 16,82 16,89 59,25 11,3 11,3 11,3 0 220 0,2 0,3 0 8,5 8,7
19/02/2017 13:20 16,15 16,24 16,33 60,93 11,3 11,3 11,4 0 222 0,7 0,8 0 8,3 8,5
19/02/2017 13:10 16,17 16,29 16,42 60,03 11,3 11,3 11,3 0 216 0,3 0,4 0 8,3 8,3
19/02/2017 13:00 15,84 15,87 15,91 61,64 11,3 11,3 11,3 0 216 0,6 0,8 0 8,3 8,3
19/02/2017 12:50 15,37 15,45 15,54 63,38 11,3 11,3 11,3 0 214 0,9 1 0 8,3 8,4
19/02/2017 12:40 15,34 15,34 15,34 63,71 11,3 11,3 11,3 0 212 0,5 0,5 0 8,1 8,3
19/02/2017 12:30 14,64 15 15,36 63,68 11,3 11,3 11,4 0 209 0,4 0,6 0 7,4 7,9
19/02/2017 12:20 14,38 14,52 14,66 64,09 11,4 11,4 11,5 0 200 0,7 0,8 0 7,4 7,6
19/02/2017 12:10 14,28 14,44 14,6 65,75 11,2 11,3 11,4 0 202 0,3 0,5 0 7,9 8
19/02/2017 12:00 13,73 13,9 14,08 68,41 11,3 11,3 11,4 0 195 0,5 0,6 0 7,7 8
19/02/2017 11:50 13,86 13,96 14,06 66,86 11,4 11,4 11,4 0 191 0,4 0,6 0 7,6 7,8
19/02/2017 11:40 13,62 13,79 13,97 67,6 11,4 11,4 11,4 0 184 0,3 0,5 0 7,6 7,7
19/02/2017 11:30 13,55 13,61 13,68 68,56 11,4 11,4 11,4 0 168 0,1 0,2 0 7,6 7,7
19/02/2017 11:20 13,1 13,23 13,37 68,29 11,4 11,4 11,4 0 170 0,1 0,2 0 7,3 7,3
19/02/2017 11:10 13 13,16 13,32 70,43 11,4 11,4 11,4 0 153 0 0 0 7,5 7,7
19/02/2017 11:00 12,61 12,63 12,65 72,14 11,4 11,4 11,5 0 155 0,1 0,2 0 7,5 7,6
19/02/2017 10:50 12,17 12,22 12,28 73,58 11,4 11,4 11,5 0 143 0,2 0,3 0 7,3 7,4
19/02/2017 10:40 11,63 11,78 11,93 75,06 11,4 11,4 11,5 0 61 0,2 0,4 0 7,3 7,4
19/02/2017 10:30 11,24 11,31 11,38 76,14 11,5 11,5 11,5 0 105 0,3 0,5 0 7 7
19/02/2017 10:20 11,04 11,04 11,05 76,36 11,5 11,5 11,5 0 99 0,1 0,1 0 6,7 6,8
19/02/2017 10:10 10,48 10,69 10,9 79,5 11,4 11,4 11,5 0 20 0 0 0 7,1 7,1
19/02/2017 10:00 9,5 9,74 9,99 84,64 11,5 11,5 11,5 0 19 0 0 0 7,1 7,1
19/02/2017 09:50 8,58 8,84 9,1 87,86 11,4 11,4 11,5 0 56 0 0 0 6,5 6,8
19/02/2017 09:40 8,2 8,25 8,31 88,15 11,4 11,4 11,5 0 67 0 0 0 6,3 6,3
19/02/2017 09:30 8,13 8,16 8,2 88,72 11,5 11,5 11,5 0 68 0 0 0 6,3 6,3
19/02/2017 09:20 7,68 7,81 7,95 90,19 11,5 11,5 11,5 0 55 0 0 0 6,1 6,2
19/02/2017 09:10 7,31 7,4 7,49 89,83 11,5 11,5 11,5 0 13 0 0 0 5,6 5,6
19/02/2017 09:00 7,33 7,37 7,41 89,05 11,5 11,5 11,5 0 10 0 0 0 5,5 5,5
19/02/2017 08:50 7,53 7,56 7,6 88,07 11,5 11,5 11,6 0 0 0,1 0,2 0 5,5 5,6
19/02/2017 08:40 7,62 7,64 7,67 88,8 11,4 11,4 11,5 0 0 0 0 0 5,7 5,7
19/02/2017 08:30 7,48 7,48 7,49 87,98 11,5 11,5 11,6 0 0 0 0 0 5,4 5,4
19/02/2017 08:20 7,74 7,8 7,87 86,4 11,5 11,5 11,6 0 0 0 0,1 0 5,4 5,5
19/02/2017 08:10 8,02 8,07 8,13 84,38 11,5 11,5 11,6 0 0 0 0 0 5,4 5,4
19/02/2017 08:00 8,36 8,37 8,39 83,47 11,5 11,5 11,5 0 0 0 0 0 5,6 5,6
19/02/2017 07:50 8,44 8,51 8,59 82,95 11,5 11,5 11,6 0 0 0 0 0 5,5 5,5
19/02/2017 07:40 8,64 8,65 8,66 82,84 11,5 11,5 11,5 0 0 0 0 0 5,7 5,7
19/02/2017 07:30 8,6 8,69 8,78 82,37 11,5 11,5 11,5 0 0 0 0 0 5,7 5,7
19/02/2017 07:20 8,82 8,94 9,07 80,9 11,5 11,5 11,5 0 0 0 0 0 5,7 5,7
19/02/2017 07:10 9,09 9,09 9,09 80,28 11,5 11,5 11,6 0 0 0 0 0 5,7 5,7
19/02/2017 07:00 9,12 9,12 9,13 80,87 11,5 11,5 11,5 0 0 0 0,1 0 5,8 5,9
19/02/2017 06:50 9,08 9,16 9,24 81,23 11,6 11,6 11,6 0 0 0 0 0 5,9 6
19/02/2017 06:40 9,19 9,21 9,24 81,94 11,5 11,5 11,6 0 0 0 0,1 0 6 6,1
19/02/2017 06:30 9,09 9,11 9,14 82,87 11,6 11,6 11,6 0 0 0,1 0,1 0 6,1 6,2
19/02/2017 06:20 8,89 8,91 8,94 83,94 11,6 11,6 11,6 0 0 0 0,1 0 6,2 6,2
19/02/2017 06:10 8,79 8,86 8,93 83,66 11,6 11,6 11,6 0 0 0 0,1 0 6,2 6,2
19/02/2017 06:00 9,27 9,38 9,5 82,14 11,6 11,6 11,6 0 0 0,1 0,3 0 6,3 6,3
19/02/2017 05:50 9,27 9,28 9,3 83,85 11,6 11,6 11,6 0 0 0,2 0,2 0 6,6 6,6
19/02/2017 05:40 9,01 9,07 9,13 85,91 11,6 11,6 11,6 0 0 0,1 0,2 0 6,7 6,7
19/02/2017 05:30 8,79 8,87 8,96 87,44 11,6 11,6 11,6 0 0 0,1 0,2 0 6,7 6,7
19/02/2017 05:20 8,74 8,81 8,89 88,12 11,6 11,6 11,6 0 0 0,2 0,4 0 6,7 6,8
19/02/2017 05:10 8,66 8,71 8,76 89,34 11,5 11,5 11,6 0 0 0,4 0,5 0 6,8 6,8
19/02/2017 05:00 8,51 8,53 8,56 90,3 11,7 11,7 11,7 0 0 0,1 0,1 0 7 7
19/02/2017 04:50 8,41 8,5 8,6 90,41 11,5 11,5 11,6 0 0 0,2 0,2 0 6,9 7
19/02/2017 04:40 8,17 8,22 8,28 91,88 11,6 11,6 11,6 0 0 0,3 0,5 0 6,8 6,8
19/02/2017 04:30 8,1 8,12 8,15 92,4 11,7 11,7 11,7 0 0 0 0 0 6,9 6,9
19/02/2017 04:20 8,14 8,17 8,2 93,67 11,6 11,6 11,7 0 0 0 0 0 7,1 7,1
19/02/2017 04:10 7,54 7,72 7,9 95,23 11,6 11,6 11,6 0 0 0 0 0 6,8 6,9
19/02/2017 04:00 7,29 7,32 7,36 95,03 11,6 11,6 11,6 0 0 0 0 0,2 6,3 6,4
19/02/2017 03:50 7,22 7,24 7,26 94,65 11,5 11,5 11,6 0 0 0 0 0 6,3 6,3
19/02/2017 03:40 7,09 7,13 7,18 93,81 11,6 11,6 11,7 0 0 0 0 0 6 6
19/02/2017 03:30 7,25 7,25 7,26 93,11 11,6 11,6 11,6 0 0 0 0 0 6 6
19/02/2017 03:20 7,45 7,59 7,73 92,68 11,6 11,6 11,7 0 0 0 0 0 6,2 6,3
19/02/2017 03:10 7,67 7,76 7,85 92,28 11,6 11,6 11,7 0 0 0 0,1 0 6,4 6,5
19/02/2017 03:00 7,91 7,91 7,92 92,83 11,6 11,6 11,6 0 0 0,1 0,2 0 6,7 6,7
19/02/2017 02:50 7,71 7,73 7,75 92,88 11,6 11,6 11,6 0 0 0 0 0 6,5 6,5
19/02/2017 02:40 7,78 7,8 7,83 93,61 11,6 11,6 11,7 0 0 0,1 0,2 0 6,6 6,6
19/02/2017 02:30 7,61 7,62 7,63 94,09 11,6 11,6 11,7 0 0 0 0 0 6,7 6,7
19/02/2017 02:20 7,43 7,52 7,61 94,3 11,6 11,6 11,7 0 0 0 0 0 6,5 6,6
19/02/2017 02:10 7,19 7,23 7,27 93,98 11,6 11,6 11,7 0 0 0 0 0 6 6,1
19/02/2017 02:00 7,15 7,22 7,3 93,52 11,6 11,6 11,6 0 0 0 0 0 6 6,1
19/02/2017 01:50 7,37 7,39 7,42 93,34 11,6 11,6 11,6 0 0 0 0 0 6,2 6,2
19/02/2017 01:40 7,39 7,52 7,66 95,04 11,6 11,6 11,7 0 0 0,3 0,6 0 6,6 6,6
19/02/2017 01:30 7,04 7,11 7,18 96,15 11,6 11,6 11,7 0 0 0 0 0 6,4 6,4
19/02/2017 01:20 6,91 6,91 6,92 96,15 11,6 11,6 11,6 0 0 0 0 0 6,3 6,3
19/02/2017 01:10 6,98 6,98 6,99 95,94 11,6 11,6 11,6 0 0 0 0 0 6,2 6,2
19/02/2017 01:00 6,86 6,86 6,87 95,53 11,7 11,7 11,7 0 0 0 0 0 6,1 6,1
19/02/2017 00:50 7,02 7,1 7,19 95,36 11,6 11,6 11,6 0 0 0 0,1 0 6,3 6,3
19/02/2017 00:40 7,14 7,16 7,18 95,09 11,6 11,6 11,6 0 0 0 0 0 6,2 6,3
19/02/2017 00:30 7,15 7,25 7,36 94,58 11,5 11,6 11,7 0 0 0 0 0 6,2 6,3
19/02/2017 00:20 7,33 7,4 7,47 94,32 11,6 11,6 11,6 0 0 0 0 0 6,4 6,4
19/02/2017 00:10 7,17 7,25 7,33 93,51 11,6 11,6 11,7 0 0 0 0 0 6 6,1
19/02/2017 00:00 7,47 7,55 7,64 92,96 11,6 11,6 11,6 0 0 0 0 0 6,3 6,3
18/02/2017 23:50 7,71 7,74 7,78 92,53 11,7 11,7 11,7 0 0 0 0 0 6,5 6,5
18/02/2017 23:40 7,93 7,93 7,94 92,25 11,6 11,6 11,6 0 0 0 0 0 6,7 6,7
18/02/2017 23:30 7,66 7,82 7,98 92,99 11,6 11,6 11,7 0 0 0 0 0 6,5 6,6
18/02/2017 23:20 7,67 7,7 7,73 93,55 11,5 11,5 11,6 0 0 0 0 0 6,5 6,5
18/02/2017 23:10 7,67 7,68 7,7 93,75 11,6 11,6 11,7 0 0 0 0,1 0 6,5 6,5
18/02/2017 23:00 7,86 7,9 7,95 94,62 11,6 11,6 11,7 0 0 0 0 0 6,9 7
18/02/2017 22:50 7,77 7,8 7,83 95,8 11,6 11,6 11,6 0 0 0 0 0 7 7
18/02/2017 22:40 7,56 7,6 7,64 95,33 11,6 11,6 11,6 0 0 0,1 0,2 0 6,8 6,8
18/02/2017 22:30 7,77 7,78 7,8 94,37 11,6 11,6 11,6 0 0 0 0 0 6,8 6,8
18/02/2017 22:20 7,8 7,91 8,03 93,3 11,6 11,6 11,6 0 0 0 0 0 6,7 6,8
18/02/2017 22:10 8,09 8,13 8,17 94,01 11,6 11,6 11,6 0 0 0 0 0 7 7
18/02/2017 22:00 8,02 8,02 8,03 94,53 11,6 11,6 11,6 0 0 0 0 0 7,1 7,1
18/02/2017 21:50 7,91 7,95 7,99 94,72 11,6 11,6 11,6 0 0 0 0 0 7 7
18/02/2017 21:40 8,06 8,07 8,09 95 11,5 11,5 11,5 0 0 0 0,1 0 7,1 7,1
18/02/2017 21:30 8,19 8,25 8,32 94,05 11,6 11,6 11,6 0 0 0 0 0 7,2 7,2
18/02/2017 21:20 8,37 8,55 8,73 91,82 11,5 11,5 11,5 0 0 0 0,1 0 7,1 7,2